カタログに戻る

DMSP 5D-2 F13 DEB

運用中SSO
NORAD 40677·DEBRIS·🇺🇸 United States

打ち上げ Mar 24, 1995 から Vandenberg Space Force Base

Loading…

次のパス (今後24時間)

TLE

最新Source: Space-Track

元期: Sep 14, 2026, 06:35 UTC

1 40677U 95015FR  26257.27446645  .00000338  00000-0  15122-3 0  9992
2 40677  98.5899 272.6974 0048028   5.5251 354.6451 14.28201780593144

AllMySatでDMSP 5D-2 F13 DEBをリアルタイム追跡

Download on the App Store